Hourly Data Report for September 17, 2017

All times are specified in Local Standard Time (LST). Add 1 hour to adjust for Daylight Saving Time where and when it is observed.

MIRAMICHI RCS
NEW BRUNSWICK

47°00'34.000" N
65°27'54.000" W
33.00 m
8100989
71744
ACQ

Download Data

Hourly Data (September 2017)
Hourly Data Report for September 17, 2017
Temp Definition
°C
Dew Point Temp Definition
°C
Rel Hum Definition
%
Wind Dir Definition
10's deg

Wind Spd Definition
km/h
Visibility Definition
km
Stn Press Definition
kPa
Hmdx Definition


Wind Chill Definition


Weather Definition


TIME
00:00 13.5 9.4 76 8 6   101.85     LegendNANA
01:00 13.5 9.2 75 9 7   101.81     LegendNANA
02:00 13.4 8.9 74 8 5   101.82     LegendNANA
03:00 13.2 9.1 76 5 4   101.81     LegendNANA
04:00 13.2 9.8 80   0   101.78     LegendNANA
05:00 13.2 9.9 81 36 5   101.83     LegendNANA
06:00 13.2 10.6 84 8 3   101.85     LegendNANA
07:00 13.1 10.9 87 1 3   101.87     LegendNANA
08:00 13.5 11.7 89 5 4   101.88     LegendNANA
09:00 13.8 12.1 90 11 6   101.87     LegendNANA
10:00 14.3 12.1 86 11 7   101.86     LegendNANA
11:00 14.8 12.0 83 8 9   101.87     LegendNANA
12:00 15.4 12.0 80 10 13   101.83     LegendNANA
13:00 15.4 12.0 80 11 12   101.78     LegendNANA
14:00 14.6 12.4 86 5 13   101.76     LegendNANA
15:00 14.5 12.4 88 6 12   101.76     LegendNANA
16:00 14.2 12.7 91 9 11   101.74     LegendNANA
17:00 14.3 12.7 90 6 10   101.75     LegendNANA
18:00 13.9 12.8 93 5 9   101.78     LegendNANA
19:00 13.7 12.9 95 7 11   101.81     LegendNANA
20:00 13.9 12.9 94 6 8   101.82     LegendNANA
21:00 13.8 13.0 95 6 8   101.84     LegendNANA
22:00 14.0 12.9 93 5 5   101.85     LegendNANA
23:00 14.2 12.9 92 4 7   101.86     LegendNANA

Notes on Data Quality.

Legend

  • E = Estimated
  • M = Missing
  • NA = Not Available
  • ‡ = Partner data that is not subject to review by the National Climate Archives
Date modified: